Miscellaneous Local Product
Issued by NWS North Platte, NE

Home | Current Version | Previous Version | Graphics & Text | Print | Product List | Glossary On
Versions: 1 2 3 4 5 6 7 8 9 10 11 12 13 14 15 16 17 18 19 20 21 22 23 24 25 26 27 28 29 30 31 32 33 34 35 36 37 38 39 40 41 42 43 44 45 46 47 48 49 50
575
AXUS43 KLBF 290710
MISLBF


WESTERN AND NORTH CENTRAL NEBRASKA HOURLY WEATHER ROUNDUP
NATIONAL WEATHER SERVICE NORTH PLATTE NE
200 AM CDT SUN MAY 29 2016

NOTE: "FAIR" INDICATES FEW OR NO CLOUDS BELOW 12,000 FEET WITH NO
SIGNIFICANT WEATHER AND/OR OBSTRUCTIONS TO VISIBILITY.

NOTE: STATIONS NOT REPORTING VARIABLES SUCH AS SKY/WEATHER OR
PRESSURE ARE PROVIDED BY RAWS AND APRS NETWORKS AND ARE NOT UNDER
NATIONAL WEATHER SERVICE QUALITY CONTROL.

...OBSERVATIONS IN AND NEAR THE EASTERN PANHANDLE OF NEBRASKA...

CITY           SKY/WX    TMP DP  RH WIND       PRES   REMARKS
PINE RIDGE     CLEAR     42  40  92 CALM      30.07S
CHADRON        CLEAR     42  40  92 CALM      30.07S
ALLIANCE       CLEAR     42  41  96 SW7       30.08S
SIDNEY         CLEAR     46  44  93 NE7       30.11S
CRESCENT LAKE    N/A     50  49  95 W5          N/A
BIG SPRINGS      N/A     56  51  85 CALM        N/A
$$

...OBSERVATIONS IN NORTHERN NEBRASKA AND FAR SOUTHERN SOUTH DAKOTA...

CITY           SKY/WX    TMP DP  RH WIND       PRES   REMARKS
WINNER         FAIR      59  54  83 W8        30.00R
VALENTINE      PTCLDY    56  50  80 W6        30.04R
THEDFORD       CLOUDY    52  50  92 CALM      30.05S
AINSWORTH      LGT RAIN  58  55  88 S7        30.03R
O`NEILL        CLOUDY    60  58  91 SW6       30.01F
ORD            PTCLDY    57  55  93 CALM      30.00F
BROKEN BOW     MOCLDY    58  53  84 N3        30.00F
BUTTE            N/A     58  56  93 SW3         N/A
CHAMBERS         N/A     59  58  96 W3          N/A
EWING            N/A     55  54  97 CALM        N/A
$$

...OBSERVATIONS IN SOUTHWEST NEBRASKA AND FAR NORTHEAST COLORADO...

CITY           SKY/WX    TMP DP  RH WIND       PRES   REMARKS
WRAY           FAIR      52  46  82 SW5       30.11R
IMPERIAL       CLEAR     56  50  80 E6        30.07R
OGALLALA       CLEAR     49  47  92 CALM      30.07S
NORTH PLATTE   CLOUDY    52  50  93 W6        30.06R
MCCOOK         LGT RAIN  58  51  78 N8        30.08R
LEXINGTON      CLOUDY    55  51  87 S5        30.03F
PAXTON           N/A     55  51  85 CALM        N/A
STAPLETON        N/A     53  49  87 CALM        N/A
GOTHENBURG       N/A     60  49  67 S3          N/A
CALLAWAY         N/A     61  50  67 NW9         N/A
$$

...OBSERVATIONS IN CENTRAL LINCOLN COUNTY AREA...

CITY           SKY/WX    TMP DP  RH WIND       PRES   REMARKS
N.P. AIRPORT   CLOUDY    52  50  93 W6        30.06R
N.P. DOWNTOWN    N/A     54  52  94 CALM        N/A
N.P. SOUTHEAST   N/A     55  53  94 CALM        N/A
N.P. HILLCREST   N/A     56  51  82 NW3         N/A
$$

...SOME OBSERVATIONS FROM AROUND THE REGION...

CITY           SKY/WX    TMP DP  RH WIND       PRES   REMARKS
DENVER         CLEAR     48  42  80 S5        30.15R
LARAMIE        CLOUDY    44  35  70 SW13      30.19F
CHEYENNE       CLEAR     48  39  71 SW9       30.16S
SCOTTSBLUFF    CLEAR     49  44  83 E6        30.09S
RAPID CITY     CLEAR     51  45  79 NW8       30.04S
BISMARCK       CLEAR     52  52 100 W6        29.96R
PIERRE         CLOUDY    53  52  96 N6        29.97R
SIOUX FALLS    CLEAR     57  55  93 SW3       29.95R
OMAHA          CLEAR     59  54  83 NW5       29.99S
GRAND ISLAND   LGT RAIN  62  58  86 SE5       30.01F
KANSAS CITY    CLEAR     61  57  87 S7        30.02S
WICHITA        CLEAR     66  59  78 E3        30.03F
OKLAHOMA CITY  PTCLDY    71  69  93 SE8       30.03F
DALLAS         CLOUDY    78  72  81 SE7       30.02F
AMARILLO       CLEAR     61  49  64 SE12      30.08S
DODGE CITY     CLEAR     57  53  86 SE8       30.06F
HAYS           CLEAR     55  48  76 CALM      30.04S
GOODLAND       MOCLDY    57  48  72 W9        30.10R
$$




USA.gov is the U.S. government's official web portal to all federal, state and local government web resources and services.